{"data":{"norad_id":62741,"intl_designator":"2025-014G","name":"STARLINK-32770","alt_names":[],"object_type":"PAYLOAD","status":"ACTIVE","operator":null,"country":"US","launch_date":"2025-01-21","launch_site_code":"AFETR","launch_vehicle":null,"mission":null,"orbit_class":"UNKNOWN","rcs_meters":null,"size_class":null,"mass_kg":null,"dimensions":null,"purposes":["comms"],"wikipedia_slug":null,"has_3d_model":false,"image_url":null,"decayed_at":null,"tle_current":{"epoch":"2026-09-21T08:25:19.227072Z","epoch_age_seconds":97823,"freshness":"FRESH","line1":"1 62741U 25014G   26264.35091698  .00006738  00000+0  25412-3 0  9993","line2":"2 62741  43.0026 129.1974 0001418 276.8473  83.2217 15.27583441 93185","mean_motion":15.27583441,"eccentricity":0.0001418,"inclination_deg":43.0026,"raan_deg":129.1974,"arg_perigee_deg":276.8473,"mean_anomaly_deg":83.2217,"bstar":0.00025412,"rev_number":9318,"period_min":94.2665363705,"perigee_km":482.06587773973,"apogee_km":484.01170719447,"semimajor_km":6861.1757924671,"source":"CELESTRAK","updated_at":"2026-09-22T09:00:49.656976Z"}}}